Manassas, VA

2:10 AM EST on December 12, 2017 (GMT -0500)
Manassas Regional-Davis

Weather History for KHEF - October, 2012

Change the Weather History Date:

Wednesday, October 24, 2012

  Actual Average Record
Temperature  
Mean Temperature 66 °F -  
Max Temperature 82 °F 62 °F 84 °F (2001)
Min Temperature 50 °F 38 °F 28 °F (2003)
Cooling Degree Days 1    
Growing Degree Days 16 (Base 50)    
Moisture  
Dew Point 54 °F    
Average Humidity 85    
Maximum Humidity 100    
Minimum Humidity 32    
Precipitation  
Precipitation 0.00 in - - ()
Sea Level Pressure  
Sea Level Pressure 30.10 in    
Wind  
Wind Speed 0 mph (NNE)    
Max Wind Speed 8 mph    
Max Gust Speed -    
Visibility 9 miles    
Events      
Averages and records for this station are not official NWS values.
T = Trace of Precipitation, MM = Missing Value Source: NWS Daily Summary

Daily Weather History Graph

Daily Weather History Graph

Search for Another Location

Airport or City:

Trip Planner

Search our weather history database for the weather conditions in past years. The results will help you decide how hot, cold, wet, or windy it might be!

Date:

Astronomy

Oct. 24, 2012 Rise Set
Actual Time 7:28 AM EDT 6:18 PM EDT
Civil Twilight 7:01 AM EDT 6:46 PM EDT
Nautical Twilight 6:30 AM EDT 7:17 PM EDT
Astronomical Twilight 5:59 AM EDT 7:47 PM EDT
Moon 3:31 PM EDT (10/24) 2:25 AM EDT (10/24)
Length of Visible Light 11h 44m
Length of Day
10h 49m
Waxing Gibbous, 76% of the Moon is Illuminated
Oct 24
Waxing Gibbous
Oct 29
Full
Nov 6
Last Quarter
Nov 13
New
Nov 20
First Quarter

Hourly Weather History & Observations

Time (EDT) Temp. Dew Point Humidity Pressure Visibility Wind Dir Wind Speed Gust Speed Precip Events Conditions
12:15 AM 55.4 °F 53.6 °F 94% 30.07 in 10.0 mi Calm Calm - N/A   Clear
12:35 AM 55.4 °F 55.4 °F 100% 30.07 in 10.0 mi Calm Calm - N/A   Clear
12:55 AM 53.6 °F 51.8 °F 94% 30.08 in 10.0 mi Calm Calm - N/A   Clear
1:15 AM 53.6 °F 53.6 °F 100% 30.08 in 10.0 mi Calm Calm - N/A   Clear
1:35 AM 55.4 °F 53.6 °F 94% 30.08 in 10.0 mi Calm Calm - N/A   Clear
1:55 AM 55.4 °F 53.6 °F 94% 30.08 in 9.0 mi Calm Calm - N/A   Clear
2:15 AM 53.6 °F 53.6 °F 100% 30.08 in 7.0 mi Calm Calm - N/A   Clear
2:35 AM 51.8 °F 51.8 °F 100% 30.08 in 2.5 mi Calm Calm - N/A   Clear
2:55 AM 51.8 °F 51.8 °F 100% 30.08 in 10.0 mi Calm Calm - N/A   Clear
3:15 AM 53.6 °F 53.6 °F 100% 30.07 in 10.0 mi Calm Calm - N/A   Clear
3:35 AM 51.8 °F 50.0 °F 94% 30.07 in 10.0 mi Calm Calm - N/A   Clear
3:55 AM 51.8 °F 50.0 °F 94% 30.07 in 3.0 mi Calm Calm - N/A   Clear
4:15 AM 51.8 °F 51.8 °F 100% 30.08 in 9.0 mi Calm Calm - N/A   Clear
4:35 AM 51.8 °F 51.8 °F 100% 30.08 in 5.0 mi Calm Calm - N/A   Clear
4:55 AM 50.0 °F 50.0 °F 100% 30.09 in 10.0 mi Calm Calm - N/A   Clear
5:15 AM 51.8 °F 51.8 °F 100% 30.09 in 10.0 mi Calm Calm - N/A   Clear
5:35 AM 50.0 °F 50.0 °F 100% 30.09 in 5.0 mi Calm Calm - N/A   Clear
5:55 AM 51.8 °F 51.8 °F 100% 30.10 in 3.0 mi Calm Calm - N/A   Clear
6:15 AM 51.8 °F 51.8 °F 100% 30.10 in 10.0 mi Calm Calm - N/A   Clear
6:35 AM 50.0 °F 48.2 °F 94% 30.11 in 10.0 mi Calm Calm - N/A   Clear
7:55 AM 53.6 °F 53.6 °F 100% 30.12 in 10.0 mi Calm Calm - N/A   Clear
8:50 AM 53.6 °F 53.6 °F 100% 30.13 in 10.0 mi Calm Calm - N/A   Clear
9:50 AM 57.2 °F 55.4 °F 94% 30.14 in 10.0 mi Calm Calm - N/A   Clear
10:45 AM 62.6 °F 57.2 °F 82% 30.13 in 10.0 mi Calm Calm - N/A   Clear
11:45 AM 69.8 °F 59.0 °F 68% 30.13 in 10.0 mi Calm Calm - N/A   Clear
12:45 PM 73.4 °F 62.6 °F 69% 30.11 in 10.0 mi Calm Calm - N/A   Clear
1:45 PM 78.8 °F 62.6 °F 57% 30.09 in 10.0 mi Calm Calm - N/A   Clear
2:45 PM 80.6 °F 50.0 °F 34% 30.07 in 10.0 mi NNE 8.1 mph - N/A   Clear
3:45 PM 82.4 °F 50.0 °F 32% 30.07 in 10.0 mi North 4.6 mph - N/A   Clear
4:50 PM 80.6 °F 51.8 °F 37% 30.07 in 10.0 mi Calm Calm - N/A   Clear
5:55 PM 77.0 °F 53.6 °F 44% 30.07 in 10.0 mi Calm Calm - N/A   Clear
6:15 PM 73.4 °F 55.4 °F 53% 30.07 in 10.0 mi Calm Calm - N/A   Clear
6:35 PM 71.6 °F 55.4 °F 57% 30.08 in 10.0 mi Calm Calm - N/A   Clear
6:55 PM 66.2 °F 57.2 °F 73% 30.09 in 10.0 mi Calm Calm - N/A   Clear
7:15 PM 66.2 °F 57.2 °F 73% 30.09 in 10.0 mi Calm Calm - N/A   Clear
7:35 PM 64.4 °F 57.2 °F 77% 30.10 in 10.0 mi Calm Calm - N/A   Clear
7:55 PM 60.8 °F 57.2 °F 88% 30.10 in 10.0 mi Calm Calm - N/A   Partly Cloudy
8:15 PM 62.6 °F 57.2 °F 82% 30.10 in 10.0 mi Calm Calm - N/A   Partly Cloudy
8:35 PM 60.8 °F 57.2 °F 88% 30.11 in 10.0 mi Calm Calm - N/A   Partly Cloudy
8:55 PM 60.8 °F 57.2 °F 88% 30.11 in 10.0 mi Calm Calm - N/A   Mostly Cloudy
9:15 PM 62.6 °F 57.2 °F 82% 30.11 in 10.0 mi Calm Calm - N/A   Mostly Cloudy
9:35 PM 60.8 °F 57.2 °F 88% 30.12 in 10.0 mi Calm Calm - N/A   Scattered Clouds
9:55 PM 59.0 °F 57.2 °F 94% 30.12 in 10.0 mi Calm Calm - N/A   Partly Cloudy
10:15 PM 60.8 °F 57.2 °F 88% 30.12 in 10.0 mi Calm Calm - N/A   Scattered Clouds
10:35 PM 60.8 °F 57.2 °F 88% 30.12 in 10.0 mi Calm Calm - N/A   Partly Cloudy
10:55 PM 57.2 °F 55.4 °F 94% 30.13 in 10.0 mi Calm Calm - N/A   Scattered Clouds
11:15 PM 57.2 °F 55.4 °F 94% 30.12 in 10.0 mi Calm Calm - N/A   Partly Cloudy
11:35 PM 57.2 °F 55.4 °F 94% 30.12 in 10.0 mi Calm Calm - N/A   Clear
11:55 PM 57.2 °F 55.4 °F 94% 30.12 in 10.0 mi Calm Calm - N/A   Clear